Weather in Gallyaaral

Uzbekistan     40°01′36″N   67°35′30″E
В апреле 2022 года жителям России запретили посещать сайт meteo.paraplan.net по решению Генеральной прокуратуры. Аудитория сайта уменьшилась в 10 раз. Владельцы сайта не видят смысла в поддержке погодного сервера в таких условиях. Сайт будет закрыт в октябре.
temp.,
°C
wind,
m/s
gust,
m/s
humid.,
%
clouds,
%
prec.,
mm/h
press.,
hPa
HPBL,
m
25 september, sun
sun2523:00+21sse11200 0.0 101111
02:00+20wsw11220 0.0 101011
05:00+19ssw11230 0.0 101111
08:00+22w00200 0.0 101164
11:00+29ne32130 0.0 10101448
14:00+31nne22100 0.0 10092346
17:00+30ne43100 0.0 10101754
20:00+23ne12170 0.0 101211
26 september, mon
mon2623:00+21wnw00180 0.0 101311
02:00+20wsw11190 0.0 101311
05:00+19sw11200 0.0 101411
08:00+23wsw11160 0.0 101553
11:00+29nne11110 0.0 10151370
14:00+32ne3390 0.0 10132775
17:00+28nne87140 0.0 1014861
20:00+22nne611310 0.0 1018318
27 september, tue
tue2723:00+19ne510430 0.0 1019351
02:00+16nne410440 0.0 1019255
05:00+14ne38350 0.0 1019180
08:00+16ne48280 0.0 1019435
11:00+21ne78220 0.0 1018811
14:00+24ne77190 0.0 10161079
17:00+23nne78190 0.0 10151144
20:00+18ne410210 0.0 1017203
28 september, wed
wed2823:00+14ne33250 0.0 101740
02:00+13nne33280 0.0 101628
05:00+12nne33310 0.0 101625
08:00+14ne37280 0.0 1016289
11:00+20ne66190 0.0 1015720
14:00+23ne66185 0.0 1013867
17:00+23ne661878 0.0 1013969
20:00+17ne3824100 0.0 1014127
29 september, thu
thu2923:00+14nne33270 0.0 101525
02:00+13nne22330 0.0 101414
05:00+12nne223556 0.0 101311
08:00+16ne23287 0.0 1013139
11:00+22ene441844 0.0 1012605
14:00+25ne54155 0.0 1010876
17:00+24ne5617100 0.0 1010764
20:00+18nne2225100 0.0 101115